EZY21QW EGGW-LPMA

Flight info

Callsign EZY21QW
Flight time N/A
Altitude 37000
Route RODN1C RODNI N27 ICTAM Q63 CPT Y321 PEPIS Q41 SAM M195 LORKU DCT EBOMO DCT COQUE DCT KORUL N728 DEMOS UN741 LIDRO LIDR1P
Aircraft A320/M-SDE3FGHIRWY/LB1

Departure

Time 2026-05-08 07:03
Airport London Luton Airport (EGGW)

Arrival

Time N/A
Airport Cristiano Ronaldo International Airport (LPMA)
Time Latitude Longitude Altitude Speed Heading
2026-05-08 05:56 51.87758 -0.37124 516 ft 0 kts 252°
2026-05-08 06:54 51.87759 -0.37120 516 ft 1 kts 252°
2026-05-08 06:54 51.87764 -0.37092 516 ft 3 kts 252°
2026-05-08 06:54 51.87770 -0.37061 516 ft 3 kts 252°
2026-05-08 06:54 51.87776 -0.37031 516 ft 3 kts 245°
2026-05-08 06:55 51.87785 -0.37013 516 ft 3 kts 183°
2026-05-08 06:55 51.87798 -0.37015 515 ft 1 kts 162°
2026-05-08 06:55 51.87811 -0.37022 514 ft 2 kts 162°
2026-05-08 06:55 51.87813 -0.37024 514 ft 1 kts 162°
2026-05-08 06:58 51.87795 -0.37014 515 ft 6 kts 162°
2026-05-08 06:58 51.87741 -0.36986 519 ft 12 kts 162°
2026-05-08 06:59 51.87661 -0.36943 524 ft 10 kts 164°
2026-05-08 06:59 51.87624 -0.37009 522 ft 10 kts 252°
2026-05-08 06:59 51.87601 -0.37136 522 ft 14 kts 254°
2026-05-08 06:59 51.87577 -0.37287 522 ft 13 kts 263°
2026-05-08 07:00 51.87580 -0.37417 523 ft 9 kts 253°
2026-05-08 07:00 51.87521 -0.37493 521 ft 14 kts 223°
2026-05-08 07:00 51.87487 -0.37636 523 ft 12 kts 254°
2026-05-08 07:00 51.87466 -0.37757 523 ft 10 kts 254°
2026-05-08 07:01 51.87447 -0.37863 522 ft 10 kts 254°
2026-05-08 07:01 51.87427 -0.37976 524 ft 11 kts 250°
2026-05-08 07:01 51.87369 -0.38069 523 ft 13 kts 204°
2026-05-08 07:01 51.87284 -0.38116 522 ft 10 kts 181°
2026-05-08 07:02 51.87247 -0.38098 523 ft 3 kts 117°
2026-05-08 07:02 51.87249 -0.38081 524 ft 1 kts 74°
2026-05-08 07:02 51.87249 -0.38080 524 ft 0 kts 75°
2026-05-08 07:02 51.87305 -0.37750 523 ft 69 kts 74°
2026-05-08 07:03 51.87498 -0.36641 527 ft 136 kts 75°
2026-05-08 07:03 51.87786 -0.34923 791 ft 167 kts 76°
2026-05-08 07:03 51.88106 -0.33117 1644 ft 166 kts 77°
2026-05-08 07:03 51.88437 -0.31285 2159 ft 174 kts 77°
2026-05-08 07:04 51.88796 -0.29277 2335 ft 197 kts 77°
2026-05-08 07:04 51.89187 -0.27033 2580 ft 216 kts 77°
2026-05-08 07:04 51.89272 -0.24524 2826 ft 234 kts 108°
2026-05-08 07:04 51.88356 -0.22334 3283 ft 245 kts 146°
2026-05-08 07:05 51.86726 -0.21479 3865 ft 255 kts 179°
2026-05-08 07:05 51.84993 -0.22159 4568 ft 263 kts 208°
2026-05-08 07:05 51.83674 -0.24194 5357 ft 269 kts 239°
2026-05-08 07:05 51.83114 -0.27085 6132 ft 273 kts 258°
2026-05-08 07:06 51.82798 -0.30117 6909 ft 274 kts 260°
2026-05-08 07:06 51.82545 -0.33173 7686 ft 274 kts 262°
2026-05-08 07:06 51.82306 -0.36231 8477 ft 274 kts 260°
2026-05-08 07:06 51.81976 -0.39272 9266 ft 274 kts 258°
2026-05-08 07:07 51.81610 -0.42291 10051 ft 274 kts 257°
2026-05-08 07:07 51.81213 -0.45369 10443 ft 289 kts 256°
2026-05-08 07:07 51.80717 -0.48653 10584 ft 312 kts 255°
2026-05-08 07:07 51.80157 -0.52150 10801 ft 329 kts 255°
2026-05-08 07:08 51.79574 -0.55775 11315 ft 336 kts 255°
2026-05-08 07:08 51.78992 -0.59441 11926 ft 339 kts 255°
2026-05-08 07:08 51.78411 -0.63156 12557 ft 342 kts 255°
2026-05-08 07:08 51.77832 -0.66906 13161 ft 346 kts 255°
2026-05-08 07:09 51.77260 -0.70642 13752 ft 349 kts 255°
2026-05-08 07:09 51.76660 -0.74503 14296 ft 352 kts 252°
2026-05-08 07:09 51.75763 -0.78134 14794 ft 354 kts 241°
2026-05-08 07:09 51.74406 -0.81449 15307 ft 356 kts 230°
2026-05-08 07:10 51.72694 -0.84342 15818 ft 358 kts 224°
2026-05-08 07:10 51.70922 -0.87186 16338 ft 361 kts 224°
2026-05-08 07:10 51.69136 -0.90056 16851 ft 364 kts 224°
2026-05-08 07:10 51.67339 -0.92943 17349 ft 366 kts 224°
2026-05-08 07:11 51.65524 -0.95857 17839 ft 369 kts 224°
2026-05-08 07:11 51.63697 -0.98785 18351 ft 371 kts 224°
2026-05-08 07:11 51.61858 -1.01731 18779 ft 374 kts 224°
2026-05-08 07:11 51.60009 -1.04691 19196 ft 376 kts 224°
2026-05-08 07:12 51.58144 -1.07672 19610 ft 379 kts 224°
2026-05-08 07:12 51.56267 -1.10658 20021 ft 381 kts 224°
2026-05-08 07:12 51.54374 -1.13668 20430 ft 384 kts 224°
2026-05-08 07:12 51.52510 -1.16636 20818 ft 386 kts 224°
2026-05-08 07:13 51.50418 -1.19339 21201 ft 388 kts 211°
2026-05-08 07:13 51.47961 -1.21174 21573 ft 391 kts 198°
2026-05-08 07:13 51.45304 -1.22178 21946 ft 395 kts 188°
2026-05-08 07:13 51.42587 -1.22475 22308 ft 398 kts 183°
2026-05-08 07:14 51.39822 -1.22678 22674 ft 400 kts 184°
2026-05-08 07:14 51.37030 -1.22913 23044 ft 402 kts 184°
2026-05-08 07:14 51.34227 -1.23158 23405 ft 405 kts 184°
2026-05-08 07:14 51.31402 -1.23406 23750 ft 407 kts 184°
2026-05-08 07:15 51.28573 -1.23649 24082 ft 409 kts 184°
2026-05-08 07:15 51.25724 -1.23886 24389 ft 411 kts 184°
2026-05-08 07:15 51.22863 -1.24117 24687 ft 413 kts 184°
2026-05-08 07:15 51.19994 -1.24448 24955 ft 414 kts 189°
2026-05-08 07:16 51.17184 -1.25403 25216 ft 415 kts 195°
2026-05-08 07:16 51.14373 -1.26594 25495 ft 417 kts 195°
2026-05-08 07:16 51.11566 -1.27779 25769 ft 419 kts 195°
2026-05-08 07:16 51.08738 -1.28970 26051 ft 421 kts 195°
2026-05-08 07:17 51.05904 -1.30159 26326 ft 423 kts 195°
2026-05-08 07:17 51.03046 -1.31354 26601 ft 425 kts 195°
2026-05-08 07:17 51.00171 -1.32554 26885 ft 427 kts 195°
2026-05-08 07:17 50.97303 -1.33817 27155 ft 429 kts 200°
2026-05-08 07:18 50.94558 -1.35668 27408 ft 429 kts 209°
2026-05-08 07:18 50.92012 -1.38153 27656 ft 431 kts 214°
2026-05-08 07:18 50.89542 -1.40752 27903 ft 432 kts 214°
2026-05-08 07:18 50.87019 -1.43393 28071 ft 437 kts 215°
2026-05-08 07:19 50.84472 -1.46046 28213 ft 441 kts 215°
2026-05-08 07:19 50.81890 -1.48717 28414 ft 444 kts 215°
2026-05-08 07:19 50.79291 -1.51398 28644 ft 447 kts 215°
2026-05-08 07:19 50.76683 -1.54088 28854 ft 448 kts 215°
2026-05-08 07:20 50.74066 -1.56788 29063 ft 450 kts 215°
2026-05-08 07:20 50.71438 -1.59497 29264 ft 452 kts 215°
2026-05-08 07:20 50.68799 -1.62215 29472 ft 454 kts 215°
2026-05-08 07:20 50.66145 -1.64947 29670 ft 456 kts 215°
2026-05-08 07:21 50.63483 -1.67686 29904 ft 457 kts 216°
2026-05-08 07:21 50.60818 -1.70428 30167 ft 458 kts 216°
2026-05-08 07:21 50.58157 -1.73163 30398 ft 458 kts 216°
2026-05-08 07:21 50.55493 -1.75890 30656 ft 457 kts 216°
2026-05-08 07:22 50.52827 -1.78613 30916 ft 456 kts 216°
2026-05-08 07:22 50.50168 -1.81324 31174 ft 455 kts 216°
2026-05-08 07:22 50.47512 -1.84033 31438 ft 454 kts 216°
2026-05-08 07:22 50.44865 -1.86734 31634 ft 455 kts 218°
2026-05-08 07:23 50.42203 -1.89456 31768 ft 457 kts 218°
2026-05-08 07:23 50.39538 -1.92174 31976 ft 457 kts 218°
2026-05-08 07:23 50.36864 -1.94884 32248 ft 456 kts 218°
2026-05-08 07:23 50.34199 -1.97574 32525 ft 455 kts 218°
2026-05-08 07:24 50.31534 -2.00259 32804 ft 454 kts 218°
2026-05-08 07:24 50.28887 -2.02928 33083 ft 452 kts 218°
2026-05-08 07:24 50.26281 -2.05557 33361 ft 451 kts 218°
2026-05-08 07:24 50.23649 -2.08205 33636 ft 450 kts 218°
2026-05-08 07:25 50.21008 -2.10822 33915 ft 449 kts 218°
2026-05-08 07:25 50.18365 -2.13404 34161 ft 448 kts 217°
2026-05-08 07:25 50.13084 -2.18501 34592 ft 446 kts 217°
2026-05-08 07:26 50.10447 -2.21041 34790 ft 445 kts 217°
2026-05-08 07:26 50.07819 -2.23581 34972 ft 445 kts 217°
2026-05-08 07:26 50.05194 -2.26122 35038 ft 444 kts 217°
2026-05-08 07:27 49.99963 -2.31187 35044 ft 441 kts 217°
2026-05-08 07:27 49.94754 -2.36216 35043 ft 440 kts 217°
2026-05-08 07:28 49.89559 -2.41219 35035 ft 439 kts 217°
2026-05-08 07:28 49.84361 -2.46216 35034 ft 439 kts 217°
2026-05-08 07:29 49.79168 -2.51198 35030 ft 439 kts 217°
2026-05-08 07:29 49.73969 -2.56169 35030 ft 439 kts 217°
2026-05-08 07:30 49.68771 -2.61121 35019 ft 439 kts 217°
2026-05-08 07:30 49.63614 -2.66025 35024 ft 438 kts 217°
2026-05-08 07:31 49.58421 -2.70949 35023 ft 438 kts 217°
2026-05-08 07:31 49.53250 -2.75847 35054 ft 435 kts 217°
2026-05-08 07:32 49.48085 -2.80734 35041 ft 434 kts 217°
2026-05-08 07:32 49.42948 -2.85571 35044 ft 433 kts 217°
2026-05-08 07:33 49.37817 -2.90391 35043 ft 432 kts 217°
2026-05-08 07:33 49.32692 -2.95198 35035 ft 431 kts 217°
2026-05-08 07:34 49.27567 -2.99988 35045 ft 431 kts 217°
2026-05-08 07:34 49.22439 -3.04758 35025 ft 431 kts 217°
2026-05-08 07:35 49.17313 -3.09522 35021 ft 431 kts 217°
2026-05-08 07:35 49.12218 -3.14248 35027 ft 430 kts 216°
2026-05-08 07:36 49.07109 -3.18978 35031 ft 429 kts 216°
2026-05-08 07:36 49.02007 -3.23707 35016 ft 429 kts 216°
2026-05-08 07:37 48.97756 -3.27622 35019 ft 429 kts 216°
2026-05-08 07:37 48.92654 -3.32308 35024 ft 428 kts 216°
2026-05-08 07:38 48.87553 -3.36983 35025 ft 428 kts 216°
2026-05-08 07:38 48.82450 -3.41650 35027 ft 428 kts 216°
2026-05-08 07:39 48.77354 -3.46312 35029 ft 428 kts 216°
2026-05-08 07:39 48.72252 -3.50962 35040 ft 427 kts 216°
2026-05-08 07:40 48.67161 -3.55583 35038 ft 426 kts 216°
2026-05-08 07:40 48.62074 -3.60200 35036 ft 426 kts 216°
2026-05-08 07:41 48.56995 -3.64784 35016 ft 425 kts 216°
2026-05-08 07:41 48.51910 -3.69365 35015 ft 425 kts 216°
2026-05-08 07:42 48.46830 -3.73933 35008 ft 425 kts 215°
2026-05-08 07:42 48.41748 -3.78494 35002 ft 425 kts 215°
2026-05-08 07:43 48.36670 -3.83041 34990 ft 425 kts 215°
2026-05-08 07:43 48.31596 -3.87583 34998 ft 424 kts 215°
2026-05-08 07:44 48.26518 -3.92111 35009 ft 424 kts 215°
2026-05-08 07:44 48.21478 -3.96589 35009 ft 423 kts 215°
2026-05-08 07:45 48.16412 -4.01081 35006 ft 423 kts 215°
2026-05-08 07:45 48.11352 -4.05560 34995 ft 422 kts 214°
2026-05-08 07:46 48.06288 -4.10031 35002 ft 422 kts 214°
2026-05-08 07:46 48.01229 -4.14491 34997 ft 422 kts 214°
2026-05-08 07:47 47.96170 -4.18948 35001 ft 422 kts 214°
2026-05-08 07:47 47.91113 -4.23396 35000 ft 422 kts 214°
2026-05-08 07:48 47.86046 -4.27826 35005 ft 421 kts 214°
2026-05-08 07:48 47.80996 -4.32235 34999 ft 420 kts 214°
2026-05-08 07:49 47.76021 -4.36785 34993 ft 419 kts 216°
2026-05-08 07:49 47.71102 -4.41420 34974 ft 419 kts 216°
2026-05-08 07:50 47.66165 -4.46032 34985 ft 419 kts 215°
2026-05-08 07:50 47.61215 -4.50597 34975 ft 419 kts 215°
2026-05-08 07:51 47.56282 -4.55116 34983 ft 419 kts 215°
2026-05-08 07:51 47.51325 -4.59659 34978 ft 419 kts 215°
2026-05-08 07:52 47.46360 -4.64203 34968 ft 419 kts 214°
2026-05-08 07:52 47.41397 -4.68738 34971 ft 419 kts 214°
2026-05-08 07:53 47.36430 -4.73263 34975 ft 419 kts 214°
2026-05-08 07:53 47.31458 -4.77777 34976 ft 419 kts 214°
2026-05-08 07:54 47.26488 -4.82290 34964 ft 419 kts 214°
2026-05-08 07:54 47.21517 -4.86790 34965 ft 419 kts 214°
2026-05-08 07:55 47.16550 -4.91276 34961 ft 419 kts 214°
2026-05-08 07:55 47.11580 -4.95750 34963 ft 419 kts 214°
2026-05-08 07:56 47.06639 -5.00195 34954 ft 419 kts 213°
2026-05-08 07:56 47.01675 -5.04661 34953 ft 418 kts 213°
2026-05-08 07:57 46.96716 -5.09124 34949 ft 418 kts 213°
2026-05-08 07:57 46.91757 -5.13584 34944 ft 419 kts 213°
2026-05-08 07:58 46.86788 -5.18026 34945 ft 418 kts 213°
2026-05-08 07:58 46.81816 -5.22454 34930 ft 419 kts 213°
2026-05-08 07:59 46.76841 -5.26890 34934 ft 419 kts 213°
2026-05-08 07:59 46.71868 -5.31314 34948 ft 419 kts 213°
2026-05-08 08:00 46.66894 -5.35724 34944 ft 418 kts 213°
2026-05-08 08:00 46.61921 -5.40122 34945 ft 418 kts 213°
2026-05-08 08:01 46.56950 -5.44513 34942 ft 418 kts 213°
2026-05-08 08:01 46.51977 -5.48898 34936 ft 418 kts 213°
2026-05-08 08:02 46.46997 -5.53279 34934 ft 418 kts 213°
2026-05-08 08:02 46.42050 -5.57621 34920 ft 418 kts 212°
2026-05-08 08:03 46.37070 -5.61993 34930 ft 418 kts 212°
2026-05-08 08:03 46.32090 -5.66334 34929 ft 418 kts 212°
2026-05-08 08:04 46.27111 -5.70668 34931 ft 417 kts 212°
2026-05-08 08:04 46.22139 -5.74989 34919 ft 417 kts 211°
2026-05-08 08:05 46.17166 -5.79305 34916 ft 417 kts 211°
2026-05-08 08:05 46.12199 -5.83609 34915 ft 416 kts 211°
2026-05-08 08:06 46.07230 -5.87902 34908 ft 416 kts 211°
2026-05-08 08:06 46.02263 -5.92183 34906 ft 416 kts 211°
2026-05-08 08:07 45.97296 -5.96463 34905 ft 415 kts 211°
2026-05-08 08:07 45.92371 -6.00695 34903 ft 415 kts 211°
2026-05-08 08:08 45.87410 -6.04952 34898 ft 415 kts 211°
2026-05-08 08:08 45.82454 -6.09193 34894 ft 415 kts 211°
2026-05-08 08:09 45.77494 -6.13424 34890 ft 415 kts 210°
2026-05-08 08:09 45.72531 -6.17641 34884 ft 414 kts 210°
2026-05-08 08:10 45.67576 -6.21851 34883 ft 414 kts 210°
2026-05-08 08:10 45.62617 -6.26055 34901 ft 414 kts 210°
2026-05-08 08:11 45.57662 -6.30252 34886 ft 414 kts 210°
2026-05-08 08:11 45.52712 -6.34433 34880 ft 414 kts 210°
2026-05-08 08:12 45.47751 -6.38614 34877 ft 414 kts 210°
2026-05-08 08:12 45.42790 -6.42783 34880 ft 414 kts 210°
2026-05-08 08:13 45.37825 -6.46947 34871 ft 414 kts 209°
2026-05-08 08:13 45.32858 -6.51101 34871 ft 414 kts 209°
2026-05-08 08:14 45.27893 -6.55256 34873 ft 414 kts 209°
2026-05-08 08:14 45.22928 -6.59389 34890 ft 414 kts 209°
2026-05-08 08:15 45.17987 -6.63505 34877 ft 414 kts 208°
2026-05-08 08:15 45.13019 -6.67642 34875 ft 414 kts 208°
2026-05-08 08:16 45.08043 -6.71766 34875 ft 414 kts 208°
2026-05-08 08:16 45.03067 -6.75874 34872 ft 414 kts 208°
2026-05-08 08:17 44.98094 -6.79988 34865 ft 414 kts 208°
2026-05-08 08:17 44.93114 -6.84095 34868 ft 414 kts 208°